Tappahannock, VA

12:00 PM EDT on March 25, 2017 (GMT -0400)
Tappahannock

Weather History for KXSA - November, 2012

Change the Weather History Date:

Thursday, November 1, 2012

  Actual Average (KOFP) Record (KOFP)
Temperature  
Mean Temperature - -  
Max Temperature - 65 °F 88 °F (1950)
Min Temperature - 42 °F 24 °F (1954)
Moisture  
Dew Point -    
Average Humidity    
Maximum Humidity    
Minimum Humidity    
Precipitation  
Precipitation 0.00 in - - ()
Sea Level Pressure  
Sea Level Pressure 29.71 in    
Wind  
Wind Speed 3 mph (WSW)    
Max Wind Speed 9 mph    
Max Gust Speed -    
Visibility 10 miles    
Events      
Averages and records for this station are not official NWS values.
T = Trace of Precipitation, MM = Missing Value Source: NWS Daily Summary

Daily Weather History Graph

Daily Weather History Graph

Search for Another Location

Airport or City:

Trip Planner

Search our weather history database for the weather conditions in past years. The results will help you decide how hot, cold, wet, or windy it might be!

Date:

Astronomy

Nov. 01, 2012 Rise Set
Actual Time 7:33 AM EDT 6:08 PM EDT
Civil Twilight 7:06 AM EDT 6:35 PM EDT
Nautical Twilight 6:35 AM EDT 7:06 PM EDT
Astronomical Twilight 6:04 AM EDT 7:37 PM EDT
Moon 8:05 PM EDT (11/1) 10:02 AM EDT (11/1)
Length of Visible Light 11h 29m
Length of Day
10h 34m
Waning Gibbous, 93% of the Moon is Illuminated
Nov 1
Waning Gibbous
Nov 6
Last Quarter
Nov 13
New
Nov 20
First Quarter
Nov 28
Full

Hourly Weather History & Observations

Time (EDT) Temp. Dew Point Humidity Pressure Visibility Wind Dir Wind Speed Gust Speed Precip Events Conditions
12:15 AM - - N/A% 29.68 in 10.0 mi SW 4.6 mph - N/A   Clear
12:35 AM - - N/A% 29.68 in 10.0 mi WSW 3.5 mph - N/A   Clear
12:55 AM - - N/A% 29.69 in 10.0 mi SW 4.6 mph - N/A   Clear
1:15 AM - - N/A% 29.69 in 10.0 mi SW 4.6 mph - N/A   Clear
1:35 AM - - N/A% 29.69 in 10.0 mi SW 4.6 mph - N/A   Clear
1:55 AM - - N/A% 29.69 in 10.0 mi SW 3.5 mph - N/A   Clear
2:15 AM - - N/A% 29.69 in 10.0 mi SW 3.5 mph - N/A   Clear
2:35 AM - - N/A% 29.68 in 10.0 mi SW 3.5 mph - N/A   Clear
2:55 AM - - N/A% 29.68 in 10.0 mi SW 3.5 mph - N/A   Clear
3:15 AM - - N/A% 29.68 in 10.0 mi Calm Calm - N/A   Clear
3:35 AM - - N/A% 29.68 in 10.0 mi SW 3.5 mph - N/A   Scattered Clouds
3:55 AM - - N/A% 29.68 in 10.0 mi SW 3.5 mph - N/A   Scattered Clouds
4:15 AM - - N/A% 29.68 in 10.0 mi SW 3.5 mph - N/A   Scattered Clouds
4:35 AM - - N/A% 29.67 in 10.0 mi Calm Calm - N/A   Mostly Cloudy
4:55 AM - - N/A% 29.68 in 10.0 mi Calm Calm - N/A   Scattered Clouds
5:15 AM - - N/A% 29.68 in 10.0 mi SW 3.5 mph - N/A   Scattered Clouds
5:35 AM - - N/A% 29.68 in 10.0 mi Calm Calm - N/A   Mostly Cloudy
5:55 AM - - N/A% 29.69 in 10.0 mi Calm Calm - N/A   Overcast
6:15 AM - - N/A% 29.69 in 10.0 mi Calm Calm - N/A   Scattered Clouds
6:35 AM - - N/A% 29.69 in 10.0 mi Calm Calm - N/A   Clear
6:55 AM - - N/A% 29.68 in 10.0 mi Calm Calm - N/A   Scattered Clouds
7:15 AM - - N/A% 29.69 in 10.0 mi Calm Calm - N/A   Scattered Clouds
7:35 AM - - N/A% 29.70 in 10.0 mi Calm Calm - N/A   Scattered Clouds
8:15 AM - - N/A% 29.71 in 10.0 mi Calm Calm - N/A   Clear
8:35 AM - - N/A% 29.71 in 10.0 mi Calm Calm - N/A   Scattered Clouds
8:55 AM - - N/A% 29.71 in 10.0 mi SW 3.5 mph - N/A   Scattered Clouds
9:15 AM - - N/A% 29.72 in 10.0 mi SW 4.6 mph - N/A   Clear
9:35 AM - - N/A% 29.72 in 10.0 mi SW 4.6 mph - N/A   Clear
9:55 AM - - N/A% 29.72 in 10.0 mi SW 5.8 mph - N/A   Clear
10:15 AM - - N/A% 29.73 in 10.0 mi West 5.8 mph - N/A   Clear
10:35 AM - - N/A% 29.73 in 10.0 mi West 5.8 mph - N/A   Clear
10:55 AM - - N/A% 29.73 in 10.0 mi West 5.8 mph - N/A   Clear
11:15 AM - - N/A% 29.73 in 10.0 mi West 6.9 mph - N/A   Clear
11:35 AM - - N/A% 29.73 in 10.0 mi North 5.8 mph - N/A   Clear
11:55 AM - - N/A% 29.72 in 10.0 mi WNW 5.8 mph - N/A   Clear
12:15 PM - - N/A% 29.71 in 10.0 mi SW 4.6 mph - N/A   Clear
12:35 PM - - N/A% 29.71 in 10.0 mi West 6.9 mph - N/A   Clear
1:15 PM - - N/A% 29.70 in 10.0 mi SW 3.5 mph - N/A   Clear
1:35 PM - - N/A% 29.69 in 10.0 mi West 8.1 mph - N/A   Mostly Cloudy
1:55 PM - - N/A% 29.68 in 10.0 mi WNW 9.2 mph - N/A   Scattered Clouds
2:15 PM - - N/A% 29.67 in 10.0 mi West 5.8 mph - N/A   Scattered Clouds
2:35 PM - - N/A% 29.67 in 10.0 mi West 6.9 mph - N/A   Mostly Cloudy
2:55 PM - - N/A% 29.67 in 10.0 mi West 5.8 mph - N/A   Overcast
3:15 PM - - N/A% 29.67 in 10.0 mi SW 8.1 mph - N/A   Overcast
3:35 PM - - N/A% 29.67 in 10.0 mi WSW 8.1 mph - N/A   Scattered Clouds
3:55 PM - - N/A% 29.67 in 10.0 mi SW 5.8 mph - N/A   Clear
4:15 PM - - N/A% 29.68 in 10.0 mi WSW 4.6 mph - N/A   Clear
4:35 PM - - N/A% 29.68 in 10.0 mi SW 4.6 mph - N/A   Scattered Clouds
4:55 PM - - N/A% 29.69 in 10.0 mi WSW 5.8 mph - N/A   Overcast
5:15 PM - - N/A% 29.69 in 10.0 mi West 5.8 mph - N/A   Overcast
5:35 PM - - N/A% 29.69 in 10.0 mi West 3.5 mph - N/A   Overcast
5:55 PM - - N/A% 29.70 in 10.0 mi Calm Calm - N/A   Overcast
6:15 PM - - N/A% 29.70 in 10.0 mi Calm Calm - N/A   Overcast
6:35 PM - - N/A% 29.71 in 10.0 mi Calm Calm - N/A   Overcast
6:55 PM - - N/A% 29.72 in 10.0 mi Calm Calm - N/A   Mostly Cloudy
7:15 PM - - N/A% 29.73 in - Calm Calm - N/A   Unknown
7:35 PM - - N/A% 29.73 in 10.0 mi Calm Calm - N/A   Scattered Clouds
7:55 PM - - N/A% 29.73 in 10.0 mi Calm Calm - N/A   Mostly Cloudy
8:15 PM - - N/A% 29.73 in 10.0 mi Calm Calm - N/A   Overcast
8:35 PM - - N/A% 29.74 in 10.0 mi SW 3.5 mph - N/A   Overcast
8:55 PM - - N/A% 29.74 in 10.0 mi WSW 3.5 mph - N/A   Unknown
9:15 PM - - N/A% 29.74 in 10.0 mi SE 3.5 mph - N/A   Overcast
9:55 PM - - N/A% 29.75 in 10.0 mi WSW 3.5 mph - N/A   Overcast
10:15 PM - - N/A% 29.76 in 10.0 mi WSW 5.8 mph - N/A   Mostly Cloudy
10:35 PM - - N/A% 29.76 in 10.0 mi WNW 3.5 mph - N/A   Overcast
10:55 PM - - N/A% 29.76 in 10.0 mi West 3.5 mph - N/A   Overcast
11:15 PM - - N/A% 29.77 in 10.0 mi Calm Calm - N/A   Overcast
11:35 PM - - N/A% 29.77 in 10.0 mi West 3.5 mph - N/A   Scattered Clouds
11:55 PM - - N/A% 29.78 in 10.0 mi WSW 4.6 mph - N/A   Mostly Cloudy